Flag for Gaza Strip Weather past 2 weeks in Khan Yunis, Gaza Strip

Now
97 °F

Partly cloudy.


Feels Like: 95 °F
Forecast: 71 / 81 °F
Wind: 6 mph from West

Location: El Arish

Current Time: May 27, 2015 at 9:28:37 PM

Latest Report: May 27, 2015 at 8:00 PM


Visibility: N/A

Pressure: 29.68 "Hg

Humidity: 23%

Dew point: 54 °F

Location of Khan YunisLocation

Historic Weather in Khan Yunis — Graph

°F

Khan Yunis temperature yesterday

Maximum temperature yesterday: 81 °F (at 8:00 AM)
Minimum temperature yesterday: 70 °F (at 7:00 AM)
Average temperature yesterday: 74 °F

Past Weeks' High & Low Weather Summary

 TemperatureHumidityPressure
High115 °F (May 27, 4:00 PM)100% (May 12, 10:00 PM)30.18 "Hg (May 12, 10:00 PM)
Low54 °F (May 16, 6:00 AM)5% (May 27, 4:00 PM)29.62 "Hg (May 27, 5:00 PM)
Average75 °F72%29.91 "Hg
* Reported May 12 8:00 PM — May 27 8:00 PM, Khan Yunis, Weather by CustomWeather, © 2015

Note: Actual official high and low records may vary slightly from our data, if they occured in-between our weather recording intervals... More about our weather records

Advertising

Khan Yunis weather history for previous 24 hours

 ConditionsComfort  
Time TempWeatherWind HumidityBarometerVisibility
8:00 PM
Wed, May 27
97 °FPartly cloudy.6 mph23%29.68 "HgN/A
7:00 PM102 °FSunny.6 mph15%29.62 "Hg10 mi
6:00 PM113 °FSunny.12 mph5%29.62 "Hg10 mi
5:00 PM115 °FSunny.12 mph5%29.62 "Hg10 mi
4:00 PM115 °FSunny.13 mph5%29.65 "Hg10 mi
12:00 PM108 °FSunny.16 mph9%29.74 "Hg10 mi
11:00 AM102 °FSunny.8 mph16%29.77 "Hg10 mi
10:00 AM95 °FSunny.9 mph22%29.77 "Hg10 mi
9:00 AM90 °FSunny.9 mph29%29.77 "Hg10 mi
8:00 AM84 °FSunny.3 mph40%29.80 "Hg10 mi
7:00 AM72 °FSunny.No wind78%29.80 "Hg10 mi
6:00 AM66 °FSunny.5 mph100%29.77 "Hg10 mi
5:00 AM66 °FClear.6 mph100%29.83 "Hg10 mi
4:00 AM66 °FClear.7 mph100%29.83 "Hg10 mi
3:00 AM68 °FClear.6 mph100%29.83 "Hg10 mi
2:00 AM68 °FClear.No wind100%29.86 "Hg10 mi
1:00 AM66 °FClear.5 mph100%29.86 "Hg10 mi
12:00 AM68 °FClear.No wind100%29.89 "Hg10 mi
11:00 PM
Tue, May 26
70 °FClear.No wind94%29.92 "Hg10 mi
10:00 PM72 °FClear.No wind94%29.92 "Hg10 mi
Weather by CustomWeather, © 2015

See weather overviewHow to use our weather pages